Humidity-temperature Sensor

Selected Measurement Type: Air Temperature

 
Air Temperature [°C]     6 entries per hour
Showing data from 11/17/2014 (00:00:00 Z) to 11/14/2014 (00:01:00 Z)
Previous Next [ Day | 3-Days | 7-Days ]
First Last
Prev [ Day | 3-Days | 7-Days ] Next
First Last

Start Time:     :
End Time:     :     
Time (in GMT) :00 :50 :40 :30 :20 :10
Previous Next [ Day | 3-Days | 7-Days ]
First Last
Prev [ Day | 3-Days | 7-Days ] Next
First Last


123 => good data
MM => data is determined as missing
-- => data not received/configured
Back to Top Back to Top
11/17/2014 00:00 to 23:10 23.09 23.03 23.12 23.03 23.15 23.14
11/16/2014 23:00 to 22:10 23.18 23.27 23.11 23.24 23.24 23.23
11/16/2014 22:00 to 21:10 23.18 23.29 23.33 23.28 23.32 23.33
11/16/2014 21:00 to 20:10 23.34 23.35 23.33 23.26 23.28 23.42
11/16/2014 20:00 to 19:10 23.43 23.35 23.39 23.44 23.40 23.42
11/16/2014 19:00 to 18:10 23.40 23.40 23.41 23.50 23.51 23.40
11/16/2014 18:00 to 17:10 23.33 23.36 23.30 23.35 23.46 23.44
11/16/2014 17:00 to 16:10 23.43 23.49 23.49 23.52 23.53 23.44
11/16/2014 16:00 to 15:10 23.40 23.40 23.29 23.28 23.28 23.31
11/16/2014 15:00 to 14:10 23.22 23.22 23.15 23.08 22.90 22.79
11/16/2014 14:00 to 13:10 23.50 23.45 23.35 23.13 23.28 23.41
11/16/2014 13:00 to 12:10 23.29 22.99 22.97 22.83 22.88 23.01
11/16/2014 12:00 to 11:10 22.91 23.04 23.01 23.07 23.07 23.12
11/16/2014 11:00 to 10:10 23.02 23.06 23.02 23.02 23.17 22.97
11/16/2014 10:00 to 9:10 22.98 23.02 23.08 23.01 22.96 22.98
11/16/2014 09:00 to 8:10 22.99 23.01 23.02 23.00 23.02 22.99
11/16/2014 08:00 to 7:10 23.06 23.14 23.02 23.12 23.08 23.03
11/16/2014 07:00 to 6:10 23.07 23.24 23.16 23.14 23.15 23.18
11/16/2014 06:00 to 5:10 23.19 23.21 23.17 23.25 23.28 23.17
11/16/2014 05:00 to 4:10 23.31 23.29 23.28 23.22 23.34 23.34
11/16/2014 04:00 to 3:10 23.28 23.25 23.31 23.40 23.32 23.34
11/16/2014 03:00 to 2:10 23.33 23.30 23.31 23.44 23.26 23.35
11/16/2014 02:00 to 1:10 23.32 23.41 23.37 23.43 23.42 23.41
11/16/2014 01:00 to 0:10 23.41 23.32 23.37 23.43 23.33 23.41
11/16/2014 00:00 to 23:10 23.53 23.42 23.60 23.68 23.57 23.70
11/15/2014 23:00 to 22:10 23.55 23.58 23.59 23.61 23.65 23.52
11/15/2014 22:00 to 21:10 23.55 23.79 23.67 23.64 23.67 23.64
11/15/2014 21:00 to 20:10 23.78 23.94 23.80 23.87 24.07 23.99
11/15/2014 20:00 to 19:10 23.89 23.86 23.76 23.75 23.75 23.84
11/15/2014 19:00 to 18:10 23.87 23.72 23.87 23.73 23.93 23.85
11/15/2014 18:00 to 17:10 24.00 23.79 23.77 23.75 23.66 23.50
11/15/2014 17:00 to 16:10 23.59 23.50 23.63 23.52 23.70 23.59
11/15/2014 16:00 to 15:10 23.59 23.54 23.53 23.60 23.71 23.52
11/15/2014 15:00 to 14:10 23.58 23.45 23.29 23.22 23.28 23.34
11/15/2014 14:00 to 13:10 23.44 23.32 23.47 23.41 23.53 23.82
11/15/2014 13:00 to 12:10 23.53 23.55 23.51 23.28 23.39 23.38
11/15/2014 12:00 to 11:10 23.15 23.15 23.33 23.15 23.11 23.14
11/15/2014 11:00 to 10:10 23.19 23.06 23.11 23.14 23.03 23.16
11/15/2014 10:00 to 9:10 23.07 23.02 23.07 23.09 23.09 23.05
11/15/2014 09:00 to 8:10 23.07 23.01 22.99 23.12 23.07 23.14
11/15/2014 08:00 to 7:10 23.12 23.10 23.16 23.14 23.04 23.15
11/15/2014 07:00 to 6:10 23.14 23.19 23.21 23.16 23.20 23.18
11/15/2014 06:00 to 5:10 23.08 23.19 23.17 23.14 23.27 23.24
11/15/2014 05:00 to 4:10 23.30 23.32 23.28 23.40 23.24 23.30
11/15/2014 04:00 to 3:10 23.38 23.46 23.49 23.39 23.47 23.41
11/15/2014 03:00 to 2:10 23.26 23.42 23.41 23.36 23.35 23.48
11/15/2014 02:00 to 1:10 23.35 23.35 23.26 23.44 23.30 23.40
11/15/2014 01:00 to 0:10 23.48 23.37 23.38 23.31 23.45 23.21
11/15/2014 00:00 to 23:10 23.35 23.36 23.30 23.44 23.36 23.37
11/14/2014 23:00 to 22:10 23.52 23.63 23.45 23.48 23.46 23.66
11/14/2014 22:00 to 21:10 23.52 23.54 23.67 23.60 23.47 23.44
11/14/2014 21:00 to 20:10 23.57 23.43 23.40 23.49 23.53 23.52
11/14/2014 20:00 to 19:10 23.56 23.43 23.45 23.30 23.39 23.32
11/14/2014 19:00 to 18:10 23.34 23.45 23.37 23.32 23.34 23.37
11/14/2014 18:00 to 17:10 23.32 23.38 23.41 23.42 23.24 23.38
11/14/2014 17:00 to 16:10 23.18 23.31 23.26 23.28 23.20 23.43
11/14/2014 16:00 to 15:10 22.94 23.16 23.26 23.33 23.19 23.15
11/14/2014 15:00 to 14:10 22.66 22.62 23.27 23.20 23.19 23.21
11/14/2014 14:00 to 13:10 23.04 22.99 22.96 23.00 22.66 22.61
11/14/2014 13:00 to 12:10 22.33 22.20 22.36 22.09 21.67 21.82
11/14/2014 12:00 to 11:10 22.25 22.37 22.43 22.73 22.93 22.94
11/14/2014 11:00 to 10:10 23.02 23.03 23.12 23.04 22.99 23.00
11/14/2014 10:00 to 9:10 23.06 22.92 22.86 22.99 22.99 22.90
11/14/2014 09:00 to 8:10 22.92 22.94 23.01 23.00 22.98 23.02
11/14/2014 08:00 to 7:10 22.87 23.22 22.91 22.94 22.97 22.90
11/14/2014 07:00 to 6:10 22.96 22.92 22.90 23.14 23.07 23.06
11/14/2014 06:00 to 5:10 23.19 23.28 23.24 23.36 23.47 23.31
11/14/2014 05:00 to 4:10 -- -- -- -- -- --
11/14/2014 04:00 to 3:10 23.45 23.53 23.59 23.54 23.39 23.47
11/14/2014 03:00 to 2:10 23.48 23.59 23.55 23.47 23.43 23.53
11/14/2014 02:00 to 1:10 23.40 23.45 23.37 23.34 23.41 23.30
11/14/2014 01:00 to 0:10 23.31 23.29 23.33 23.25 23.28 23.27